This is the latest recevied weather packets stored in our database for station/object IW7DVM-13. If no packets are shown the sender has not sent any weather packets the latest 1 day(s).
| Time | Temp. | Humidity | Pressure | Rain* | Wind** | Luminosity | Snow |
|---|---|---|---|---|---|---|---|
| 1778047803 | 17.22° C | 73% | 1010 hPa | 0 mm | 2.24 m/s, 142° | - | - |
| 1778047503 | 17.22° C | 73% | 1009.9 hPa | 0 mm | 2.68 m/s, 134° | - | - |
| 1778047203 | 17.22° C | 74% | 1009.9 hPa | 0 mm | 2.24 m/s, 147° | - | - |
| 1778046903 | 17.22° C | 74% | 1009.8 hPa | 0 mm | 2.24 m/s, 139° | - | - |
| 1778046603 | 17.22° C | 74% | 1009.8 hPa | 0 mm | 1.34 m/s, 145° | - | - |
| 1778046303 | 17.22° C | 74% | 1009.6 hPa | 0 mm | 1.34 m/s, 144° | - | - |
| 1778046003 | 16.67° C | 74% | 1009.6 hPa | 0 mm | 1.34 m/s, 145° | - | - |
| 1778045703 | 17.22° C | 74% | 1009.6 hPa | 0 mm | 1.34 m/s, 142° | - | - |
| 1778045403 | 17.22° C | 74% | 1009.6 hPa | 0 mm | 1.34 m/s, 147° | - | - |
| 1778045103 | 16.67° C | 74% | 1009.6 hPa | 0 mm | 1.34 m/s, 129° | - | - |
| 1778044803 | 16.67° C | 74% | 1009.6 hPa | 0 mm | 1.79 m/s, 135° | - | - |
| 1778044503 | 16.67° C | 74% | 1009.6 hPa | 0 mm | 1.79 m/s, 132° | - | - |
| 1778044203 | 16.67° C | 74% | 1009.5 hPa | 0 mm | 0.89 m/s, 119° | - | - |
| 1778043903 | 16.67° C | 74% | 1009.5 hPa | 0 mm | 1.34 m/s, 125° | - | - |
| 1778043603 | 16.67° C | 74% | 1009.6 hPa | 0 mm | 0.89 m/s, 121° | - | - |
| 1778043303 | 16.67° C | 74% | 1009.6 hPa | 0 mm | 0.89 m/s, 134° | - | - |
| 1778043003 | 16.67° C | 74% | 1009.5 hPa | 0 mm | 0.89 m/s, 130° | - | - |
| 1778042703 | 16.67° C | 74% | 1009.5 hPa | 0 mm | 0.89 m/s, 126° | - | - |
| 1778042403 | 16.67° C | 74% | 1009.5 hPa | 0 mm | 0.89 m/s, 126° | - | - |
| 1778042103 | 16.67° C | 74% | 1009.6 hPa | 0 mm | 0.45 m/s, 100° | - | - |
| 1778041803 | 16.67° C | 74% | 1009.5 hPa | 0 mm | 0.45 m/s, 123° | - | - |
| 1778041503 | 16.67° C | 74% | 1009.5 hPa | 0 mm | 0.45 m/s, 92° | - | - |
| 1778041203 | 16.67° C | 74% | 1009.4 hPa | 0 mm | 0.45 m/s, 91° | - | - |
| 1778040903 | 16.67° C | 74% | 1009.4 hPa | 0 mm | 0.45 m/s, 101° | - | - |
| 1778040603 | 16.67° C | 74% | 1009.4 hPa | 0 mm | 0.45 m/s, 101° | - | - |
* Rain latest hour (hover to see other rain measurements)
** Current wind speed in m/s (hover to see current wind gust speed)